Regional Weather Roundup
Issued by NWS

Home | Current Version | Previous Version | Graphics & Text | Print | Product List | Glossary On
Versions: 1 2 3 4 5 6 7 8 9 10 11 12 13 14 15 16 17 18 19 20 21 22 23 24 25 26 27 28 29 30 31 32 33 34 35 36 37 38 39 40 41 42 43 44 45 46 47 48 49 50
000
ASUS43 KOAX 010910
RWRNE

WEATHER ROUNDUP FOR NEBRASKA
NATIONAL WEATHER SERVICE OMAHA NE
400 AM CDT SUN MAY 01 2016

NOTES: SATELLITE DATA IS BEING USED TO AUGMENT CLOUD COVER ABOVE
       12000 FEET.
       "FAIR" INDICATES FEW OR NO CLOUDS BELOW 12,000 FEET WITH NO
       SIGNIFICANT WEATHER AND/OR OBSTRUCTIONS TO VISIBILITY.

  * THESE STATIONS DO NOT REPORT WEATHER SUCH AS RAIN...SNOW OR FOG.

NEZ001>004-019>022-054>056-011000-
NEBRASKA PANHANDLE

CITY           SKY/WX    TMP DP  RH WIND       PRES   REMARKS
SCOTTSBLUFF    LGT RAIN  38  34  85 NW5       30.23R WCI  34
ALLIANCE       CLOUDY    33  32  96 N12       30.19R WCI  24
CHADRON        CLOUDY    38  33  82 NW5       30.24R WCI  34
KIMBALL        LGT SNOW  33  33 100 N12       30.20R WCI  24
SIDNEY         LGT SNOW  33  32  96 N20       30.17R FOG     WCI  21
$$

NEZ057>060-069>072-079>082-011000-
SOUTHWEST NEBRASKA

CITY           SKY/WX    TMP DP  RH WIND       PRES   REMARKS
NORTH PLATTE   LGT RAIN  34  32  92 N14       30.07R WCI  25
IMPERIAL       MIX PCPN  35  33  92 N21G26    30.10R WCI  24
LEXINGTON      DRIZZLE   39  37  91 N15       30.02R WCI  31
MCCOOK         MOCLDY    36  33  89 N18       30.03R WCI  26
OGALLALA       LGT RAIN  36  33  89 N18G28    30.13R WCI  26
$$

NEZ005>010-023>029-035>040-094-011000-
NORTH CENTRAL NEBRASKA

CITY           SKY/WX    TMP DP  RH WIND       PRES   REMARKS
VALENTINE      LGT RAIN  40  37  89 N8        30.16S WCI  34
AINSWORTH      LGT RAIN  40  39  97 N15G21    30.13R WCI  32
BROKEN BOW     LGT RAIN  39  36  89 N17G25    30.03R WCI  30
O`NEILL        LGT RAIN  42  41  94 N16       30.08S
ORD            LGT RAIN  41  39  93 N15       30.01R
THEDFORD       CLOUDY    37  36  98 N9        30.12R WCI  30
$$

NEZ041-046>049-061>064-073>077-083>087-011000-
SOUTH CENTRAL NEBRASKA

CITY           SKY/WX    TMP DP  RH WIND       PRES   REMARKS
GRAND ISLAND   LGT RAIN  42  40  92 N18       29.96R FOG
AURORA         CLOUDY    43  43  99 N18       29.94R FOG
HASTINGS       LGT RAIN  43  41  93 N18       29.93R
HEBRON         CLOUDY    47  47  97 NW3       29.88S FOG
HOLDREGE       CLOUDY    40  39  95 N21       29.97R FOG     WCI  30
KEARNEY *      CLOUDY    41  37  87 N18       29.98R
YORK           CLOUDY    45  43  93 NE17      29.93R
$$

NEZ011>018-030>034-042>045-011000-
NORTHEAST NEBRASKA

CITY           SKY/WX    TMP DP  RH WIND       PRES   REMARKS
NORFOLK        LGT RAIN  41  39  93 NE16      30.00R
ALBION         LGT RAIN  40  39  94 NE15G23   30.00R WCI  32
BLAIR          CLOUDY    44  43  96 NE14G20   29.93R
COLUMBUS *     CLOUDY    43  36  75 NE15G24   29.97R
FREMONT        CLOUDY    44  43  98 NE8       29.95R FOG
TEKAMAH        LGT RAIN  44  42  93 NE15      29.97R
WAYNE          CLOUDY    42  41  94 NE14      30.02R
$$

NEZ050>053-065>068-078-088>093-011000-
SOUTHEAST NEBRASKA

CITY           SKY/WX    TMP DP  RH WIND       PRES   REMARKS
LINCOLN        LGT RAIN  48  46  93 NE13      29.92R
OMAHA EPPLEY   LGT RAIN  46  43  89 NE8       29.93R
BEATRICE       CLOUDY    47  46  95 SW3       29.89S
FALLS CITY     CLOUDY    50  48  93 W5        29.88R
NEBRASKA CITY  LGT RAIN  49  49 100 NE13      29.89R VSB 3/4
PLATTSMOUTH    CLOUDY    46  46 100 NE12G17   29.90S FOG
$$

NEZ044-045-051>053-067-011000-
OMAHA AREA

CITY           SKY/WX    TMP DP  RH WIND       PRES   REMARKS
OMAHA EPPLEY   LGT RAIN  46  43  89 NE8       29.93R
BLAIR          CLOUDY    44  43  96 NE14G20   29.93R
FREMONT        CLOUDY    44  43  98 NE8       29.95R FOG
MILLARD        CLOUDY    46  44  95 NE8       29.92S
OFFUTT AFB     CLOUDY    46  46  99 NE9       29.91S
PLATTSMOUTH    CLOUDY    46  46 100 NE12G17   29.90S FOG
WAHOO          CLOUDY    45  43  95 NE15G21   29.93R
$$




USA.gov is the U.S. government's official web portal to all federal, state and local government web resources and services.